Weather History for Cincinnati, OH

Change the Weather History Date:

Monday, January 20, 2014

  Actual Average Record
Temperature  
Mean Temperature 39 °F -  
Max Temperature 45 °F 37 °F 63 °F (1951)
Min Temperature 33 °F 23 °F -19 °F (1985)
Degree Days  
Heating Degree Days 26    
Moisture  
Dew Point 26 °F    
Average Humidity 64    
Maximum Humidity 89    
Minimum Humidity 52    
Precipitation  
Precipitation 0.00 in - - ()
Sea Level Pressure  
Sea Level Pressure 29.86 in    
Wind  
Wind Speed 12 mph (WSW)    
Max Wind Speed 18 mph    
Max Gust Speed -    
Visibility 10 miles    
Events Snow    
Averages and records for this station are not official NWS values.
T = Trace of Precipitation, MM = Missing Value Source: NWS Daily Summary

Daily Weather History Graph

Daily Weather History Graph

Search for Another Location

Airport:

Trip Planner

Search our weather history database for the weather conditions in past years. The results will help you decide how hot, cold, wet, or windy it might be!

Date:

Astronomy

Jan. 20, 2014 Rise Set
Actual Time 7:53 AM EST 5:44 PM EST
Civil Twilight 7:24 AM EST 6:13 PM EST
Nautical Twilight 6:51 AM EST 6:46 PM EST
Astronomical Twilight 6:19 AM EST 7:18 PM EST
Moon 10:16 PM EST (1/20) 9:54 AM EST (1/20)
Length of Visible Light 10h 49m
Length of Day
9h 51m
Waning Gibbous, 83% of the Moon is Illuminated
Jan 20
Waning Gibbous
Jan 24
Last Quarter
Jan 30
New
Feb 6
First Quarter
Feb 14
Full

Hourly Weather History & Observations

Time (EST) Temp. Windchill Dew Point Humidity Pressure Visibility Wind Dir Wind Speed Gust Speed Precip Events Conditions
12:53 AM 36.0 °F 25.6 °F 24.1 °F 62% 29.77 in 10.0 mi SW 18.4 mph - N/A   Clear
1:53 AM 36.0 °F 26.0 °F 23.0 °F 59% 29.74 in 10.0 mi SSW 17.3 mph - N/A   Clear
2:53 AM 37.0 °F 27.4 °F 23.0 °F 57% 29.75 in 10.0 mi SW 17.3 mph - N/A   Clear
3:53 AM 36.0 °F 27.5 °F 24.1 °F 62% 29.75 in 10.0 mi SW 12.7 mph - N/A   Clear
4:53 AM 36.0 °F 28.5 °F 24.1 °F 62% 29.77 in 10.0 mi SW 10.4 mph - N/A   Clear
5:53 AM 35.1 °F 27.9 °F 24.1 °F 64% 29.78 in 10.0 mi SSW 9.2 mph - N/A   Clear
6:53 AM 35.1 °F 27.9 °F 24.1 °F 64% 29.80 in 10.0 mi SSW 9.2 mph - N/A   Clear
7:53 AM 35.1 °F 28.6 °F 24.1 °F 64% 29.83 in 10.0 mi SW 8.1 mph - N/A   Clear
8:53 AM 37.0 °F 30.4 °F 26.1 °F 65% 29.86 in 10.0 mi WSW 9.2 mph - N/A   Mostly Cloudy
9:53 AM 37.9 °F 32.1 °F 27.0 °F 65% 29.88 in 10.0 mi WSW 8.1 mph - N/A   Clear
10:53 AM 39.9 °F 33.4 °F 27.0 °F 60% 29.91 in 10.0 mi West 10.4 mph - N/A   Clear
11:53 AM 42.1 °F 35.7 °F 28.0 °F 58% 29.91 in 10.0 mi West 11.5 mph - N/A   Scattered Clouds
12:53 PM 43.0 °F 37.7 °F 28.9 °F 58% 29.89 in 10.0 mi WNW 9.2 mph - N/A   Clear
1:53 PM 43.0 °F 37.7 °F 28.0 °F 56% 29.88 in 10.0 mi WSW 9.2 mph - N/A   Clear
2:53 PM 45.0 °F 40.1 °F 28.0 °F 52% 29.88 in 10.0 mi West 9.2 mph - N/A   Clear
3:53 PM 44.1 °F 39.5 °F 28.0 °F 53% 29.89 in 10.0 mi WNW 8.1 mph - N/A   Clear
4:53 PM 42.1 °F 36.6 °F 26.1 °F 53% 29.92 in 10.0 mi NW 9.2 mph - N/A   Clear
5:53 PM 37.9 °F 32.1 °F 26.1 °F 62% 29.94 in 10.0 mi North 8.1 mph - N/A   Clear
6:53 PM 33.1 °F 27.7 °F 25.0 °F 72% 29.94 in 10.0 mi NE 5.8 mph - N/A   Clear
7:53 PM 34.0 °F 29.8 °F 26.1 °F 73% 29.94 in 10.0 mi NE 4.6 mph - N/A   Clear
8:53 PM 34.0 °F 31.0 °F 26.1 °F 73% 29.94 in 10.0 mi NE 3.5 mph - N/A   Mostly Cloudy
9:53 PM 34.0 °F - 26.1 °F 73% 29.92 in 10.0 mi Calm Calm - N/A   Overcast
10:53 PM 33.1 °F - 27.0 °F 78% 29.91 in 10.0 mi Calm Calm - N/A   Overcast
11:53 PM 33.1 °F 28.7 °F 30.0 °F 89% 29.91 in 3.0 mi NNE 4.6 mph - 0.00 in Snow Light Snow